| time (UTC) | temp F | wind direction | speed knots | gust knots | rain 1hr in | rain 24hr in | rain mn in | humidity % | barometer mb |
| 20260504015927 | 65 | 333 | 5.2 | 12.2 | 0.00 | 0.00 | 0.00 | 62 | 1009.4 |
| 20260504015408 | 65 | 48 | 6.1 | 15.6 | 0.00 | 0.00 | 0.00 | 63 | 1009.5 |
| 20260504014916 | 64 | 4 | 5.2 | 15.6 | 0.00 | 0.00 | 0.00 | 63 | 1009.7 |
| 20260504014419 | 64 | 322 | 5.2 | 16.5 | 0.00 | 0.00 | 0.00 | 64 | 1009.7 |
| 20260504013915 | 64 | 290 | 6.1 | 16.5 | 0.00 | 0.00 | 0.00 | 64 | 1009.7 |
| 20260504012742 | 64 | 338 | 5.2 | 13.9 | 0.00 | 0.00 | 0.00 | 64 | 1009.8 |
| 20260504012225 | 64 | 11 | 4.3 | 14.8 | 0.00 | 0.00 | 0.00 | 66 | 1009.7 |
| 20260504011706 | 63 | 25 | 6.1 | 14.8 | 0.00 | 0.01 | 0.00 | 66 | 1009.8 |
| 20260504011149 | 63 | 276 | 5.2 | 18.2 | 0.00 | 0.01 | 0.00 | 67 | 1009.6 |
| 20260504010636 | 63 | 18 | 6.1 | 18.2 | 0.00 | 0.03 | 0.00 | 67 | 1009.6 |
| 20260504005526 | 62 | 7 | 7.0 | 18.2 | 0.00 | 0.04 | 0.00 | 67 | 1009.8 |
| 20260504005023 | 62 | 20 | 7.0 | 14.8 | 0.00 | 0.04 | 0.00 | 68 | 1009.8 |
| 20260504004526 | 62 | 332 | 6.1 | 14.8 | 0.00 | 0.04 | 0.00 | 67 | 1010.0 |
| 20260504004017 | 63 | 2 | 6.1 | 14.8 | 0.00 | 0.05 | 0.00 | 67 | 1009.9 |
| 20260504002849 | 63 | 345 | 5.2 | 17.4 | 0.00 | 0.08 | 0.00 | 70 | 1009.7 |
| 20260504002346 | 62 | 341 | 6.1 | 17.4 | 0.00 | 0.11 | 0.00 | 70 | 1009.8 |
| 20260504001842 | 62 | 101 | 7.0 | 17.4 | 0.00 | 0.11 | 0.00 | 70 | 1009.8 |
| 20260504001336 | 62 | 39 | 6.1 | 16.5 | 0.00 | 0.14 | 0.00 | 70 | 1009.9 |
| 20260504000827 | 62 | 26 | 5.2 | 16.5 | 0.00 | 0.17 | 0.00 | 70 | 1009.9 |
| 20260503235049 | 62 | 42 | 5.2 | 14.8 | 0.00 | 0.24 | 0.00 | 71 | 1009.9 |
| 20260503234558 | 62 | 260 | 5.2 | 14.8 | 0.00 | 0.25 | 0.00 | 71 | 1009.9 |
| 20260503234104 | 62 | 354 | 5.2 | 14.8 | 0.00 | 0.26 | 0.00 | 72 | 1010.0 |
| 20260503233604 | 62 | 325 | 5.2 | 14.8 | 0.00 | 0.26 | 0.00 | 72 | 1010.0 |
| 20260503233110 | 61 | 334 | 4.3 | 13.9 | 0.00 | 0.27 | 0.00 | 72 | 1010.0 |
| 20260503232613 | 61 | 51 | 4.3 | 13.9 | 0.00 | 0.27 | 0.00 | 73 | 1010.0 |
| 20260503232100 | 61 | 39 | 5.2 | 13.9 | 0.00 | 0.27 | 0.00 | 73 | 1010.1 |
| 20260503231559 | 61 | 317 | 3.5 | 13.9 | 0.00 | 0.27 | 0.00 | 72 | 1010.1 |
| 20260503231109 | 61 | 314 | 2.6 | 8.7 | 0.00 | 0.27 | 0.00 | 73 | 1010.1 |
| 20260503225320 | 60 | 338 | 5.2 | 12.2 | 0.00 | 0.27 | 0.00 | 74 | 1010.2 |
| 20260503224806 | 60 | 356 | 4.3 | 10.4 | 0.00 | 0.27 | 0.00 | 74 | 1010.3 |
| 20260503224304 | 60 | 341 | 4.3 | 13.9 | 0.00 | 0.27 | 0.00 | 75 | 1010.2 |
| 20260503223806 | 60 | 2 | 5.2 | 13.9 | 0.00 | 0.27 | 0.00 | 75 | 1010.3 |
| 20260503223248 | 59 | 30 | 5.2 | 13.9 | 0.00 | 0.27 | 0.00 | 75 | 1010.3 |
| 20260503222110 | 59 | 343 | 3.5 | 11.3 | 0.00 | 0.27 | 0.00 | 75 | 1010.2 |
| 20260503220913 | 59 | 17 | 2.6 | 13.0 | 0.00 | 0.27 | 0.00 | 75 | 1010.3 |
| 20260503220412 | 58 | 313 | 3.5 | 13.0 | 0.00 | 0.27 | 0.00 | 76 | 1010.3 |
| 20260503215856 | 58 | 353 | 3.5 | 13.0 | 0.00 | 0.27 | 0.00 | 76 | 1010.3 |
| 20260503215342 | 58 | 44 | 3.5 | 9.6 | 0.00 | 0.27 | 0.00 | 76 | 1010.3 |
| 20260503214822 | 57 | 349 | 3.5 | 9.6 | 0.00 | 0.27 | 0.00 | 76 | 1010.3 |
| 20260503214308 | 57 | 68 | 2.6 | 8.7 | 0.00 | 0.27 | 0.00 | 76 | 1010.3 |
| 20260503213811 | 57 | 352 | 2.6 | 8.7 | 0.00 | 0.27 | 0.00 | 76 | 1010.2 |
| 20260503213252 | 57 | 50 | 2.6 | 8.7 | 0.00 | 0.27 | 0.00 | 75 | 1010.2 |
| 20260503212741 | 57 | 87 | 3.5 | 9.6 | 0.00 | 0.27 | 0.00 | 76 | 1010.2 |
| 20260503211549 | 57 | 25 | 3.5 | 9.6 | 0.00 | 0.27 | 0.00 | 77 | 1010.0 |
| 20260503211051 | 56 | 53 | 2.6 | 8.7 | 0.00 | 0.27 | 0.00 | 77 | 1010.1 |
| 20260503205316 | 56 | 42 | 1.7 | 6.1 | 0.00 | 0.27 | 0.00 | 78 | 1010.1 |
| 20260503204804 | 57 | 13 | 1.7 | 6.1 | 0.00 | 0.27 | 0.00 | 78 | 1010.0 |
| 20260503203021 | 56 | 1 | 2.6 | 11.3 | 0.00 | 0.27 | 0.00 | 79 | 1010.0 |
| 20260503202515 | 56 | 23 | 2.6 | 11.3 | 0.00 | 0.27 | 0.00 | 79 | 1009.9 |
| 20260503202022 | 56 | 354 | 1.7 | 7.0 | 0.00 | 0.27 | 0.00 | 80 | 1009.9 |
| 20260503201525 | 56 | 18 | 1.7 | 7.0 | 0.00 | 0.27 | 0.00 | 80 | 1009.9 |
| 20260503200336 | 56 | 8 | 1.7 | 6.1 | 0.00 | 0.27 | 0.00 | 81 | 1009.9 |
| 20260503195843 | 56 | 333 | 1.7 | 6.1 | 0.00 | 0.27 | 0.00 | 81 | 1009.8 |
| 20260503194740 | 56 | 358 | 0.9 | 7.0 | 0.00 | 0.27 | 0.00 | 81 | 1009.8 |
| 20260503194247 | 56 | 312 | 0.9 | 7.0 | 0.00 | 0.27 | 0.00 | 81 | 1010.0 |
| 20260503193129 | 56 | 16 | 1.7 | 7.0 | 0.00 | 0.27 | 0.00 | 81 | 1009.9 |
| 20260503192010 | 56 | 25 | 1.7 | 6.1 | 0.00 | 0.27 | 0.00 | 82 | 1009.9 |
| 20260503191508 | 56 | 43 | 1.7 | 6.1 | 0.00 | 0.27 | 0.00 | 82 | 1010.0 |
| 20260503191011 | 56 | 8 | 1.7 | 6.1 | 0.00 | 0.27 | 0.00 | 82 | 1010.1 |
| 20260503190514 | 56 | 299 | 1.7 | 6.1 | 0.00 | 0.27 | 0.00 | 81 | 1010.2 |
| 20260503190005 | 56 | 352 | 1.7 | 8.7 | 0.00 | 0.27 | 0.00 | 81 | 1010.2 |
| 20260503184854 | 56 | 2 | 3.5 | 9.6 | 0.00 | 0.27 | 0.00 | 81 | 1010.3 |
| 20260503184341 | 56 | 51 | 3.5 | 9.6 | 0.00 | 0.27 | 0.00 | 81 | 1010.3 |
| 20260503183848 | 56 | 333 | 2.6 | 9.6 | 0.00 | 0.27 | 0.00 | 81 | 1010.3 |
| 20260503181421 | 57 | 5 | 2.6 | 10.4 | 0.00 | 0.27 | 0.00 | 82 | 1010.4 |
| 20260503180921 | 57 | 40 | 3.5 | 10.4 | 0.00 | 0.27 | 0.00 | 82 | 1010.4 |
| 20260503180410 | 57 | 315 | 2.6 | 10.4 | 0.00 | 0.27 | 0.00 | 82 | 1010.5 |
| 20260503175918 | 57 | 4 | 2.6 | 9.6 | 0.00 | 0.27 | 0.00 | 82 | 1010.6 |
| 20260503175423 | 57 | 343 | 2.6 | 9.6 | 0.00 | 0.27 | 0.00 | 82 | 1010.6 |
| 20260503174927 | 57 | 315 | 3.5 | 9.6 | 0.00 | 0.27 | 0.00 | 82 | 1010.6 |
| 20260503174435 | 57 | 78 | 2.6 | 7.8 | 0.00 | 0.27 | 0.00 | 82 | 1010.7 |
| 20260503173314 | 57 | 66 | 2.6 | 10.4 | 0.00 | 0.27 | 0.00 | 82 | 1010.9 |
| 20260503172809 | 57 | 66 | 2.6 | 10.4 | 0.00 | 0.27 | 0.00 | 82 | 1010.9 |
| 20260503172312 | 57 | 349 | 2.6 | 10.4 | 0.00 | 0.27 | 0.00 | 82 | 1010.8 |
| 20260503171802 | 57 | 63 | 3.5 | 10.4 | 0.00 | 0.27 | 0.00 | 82 | 1010.9 |
| 20260503170624 | 57 | 54 | 2.6 | 7.0 | 0.00 | 0.27 | 0.00 | 82 | 1010.8 |
| 20260503170121 | 57 | 89 | 2.6 | 7.0 | 0.00 | 0.27 | 0.00 | 82 | 1010.9 |
| 20260503160200 | 57 | 335 | 2.6 | 8.7 | 0.00 | 0.27 | 0.00 | 81 | 1011.2 |
| 20260503150510 | 58 | 323 | 1.7 | 6.1 | 0.00 | 0.27 | 0.00 | 82 | 1011.2 |
| 20260503131345 | 60 | 304 | 2.6 | 7.8 | 0.00 | 0.27 | 0.27 | 78 | 1011.6 |
| 20260503130243 | 60 | 325 | 2.6 | 7.0 | 0.00 | 0.27 | 0.27 | 78 | 1011.3 |
| 20260503110538 | 61 | 359 | 2.6 | 7.0 | 0.00 | 0.27 | 0.27 | 75 | 1011.4 |
| 20260503081030 | 62 | 330 | 0.9 | 6.1 | 0.00 | 0.27 | 0.27 | 69 | 1010.1 |
| 20260503080539 | 62 | 331 | 0.9 | 5.2 | 0.00 | 0.27 | 0.27 | 69 | 1010.1 |
| 20260503072843 | 63 | 283 | 0.0 | 1.7 | 0.00 | 0.27 | 0.27 | 71 | 1010.0 |
| 20260503072327 | 64 | 307 | 0.9 | 5.2 | 0.00 | 0.27 | 0.27 | 72 | 1010.0 |
| 20260503071834 | 64 | 270 | 1.7 | 5.2 | 0.00 | 0.27 | 0.27 | 71 | 1010.0 |
| 20260503071342 | 64 | 272 | 0.9 | 5.2 | 0.00 | 0.27 | 0.27 | 72 | 1009.9 |
| 20260503070849 | 65 | 281 | 0.9 | 5.2 | 0.00 | 0.27 | 0.27 | 71 | 1009.9 |
| 20260503070348 | 65 | 231 | 1.7 | 5.2 | 0.00 | 0.27 | 0.27 | 69 | 1009.8 |
| 20260503054839 | 65 | 305 | 1.7 | 8.7 | 0.00 | 0.27 | 0.27 | 77 | 1009.4 |
| 20260503054348 | 65 | 322 | 1.7 | 6.1 | 0.00 | 0.27 | 0.27 | 77 | 1009.5 |
| 20260503053832 | 65 | 338 | 1.7 | 6.1 | 0.00 | 0.27 | 0.27 | 77 | 1009.5 |
| 20260503053323 | 65 | 338 | 1.7 | 4.3 | 0.00 | 0.27 | 0.27 | 78 | 1009.5 |
| 20260503052828 | 65 | 330 | 0.9 | 3.5 | 0.00 | 0.27 | 0.27 | 78 | 1009.5 |
| 20260503052330 | 64 | 282 | 0.9 | 6.1 | 0.00 | 0.27 | 0.27 | 78 | 1009.4 |
| 20260503051813 | 64 | 305 | 1.7 | 6.1 | 0.00 | 0.27 | 0.27 | 79 | 1009.5 |
| 20260503051315 | 64 | 316 | 1.7 | 6.1 | 0.00 | 0.27 | 0.27 | 79 | 1009.4 |
| 20260503050815 | 64 | 330 | 1.7 | 6.1 | 0.00 | 0.27 | 0.27 | 79 | 1009.5 |
| 20260503050314 | 64 | 314 | 1.7 | 4.3 | 0.00 | 0.27 | 0.27 | 80 | 1009.4 |
| 20260503045141 | 64 | 337 | 1.7 | 4.3 | 0.00 | 0.27 | 0.27 | 82 | 1009.4 |
| 20260503044625 | 64 | 312 | 1.7 | 4.3 | 0.00 | 0.27 | 0.27 | 83 | 1009.3 |
| 20260503044108 | 64 | 14 | 0.9 | 3.5 | 0.00 | 0.27 | 0.27 | 83 | 1009.3 |
| 20260503043557 | 65 | 303 | 0.9 | 4.3 | 0.00 | 0.27 | 0.27 | 83 | 1009.2 |
| 20260503043054 | 64 | 270 | 1.7 | 4.3 | 0.00 | 0.27 | 0.27 | 83 | 1009.3 |
| 20260503042604 | 65 | 287 | 1.7 | 9.6 | 0.00 | 0.27 | 0.27 | 83 | 1009.2 |
| 20260503042100 | 65 | 292 | 2.6 | 9.6 | 0.00 | 0.27 | 0.27 | 82 | 1009.3 |
| 20260503041606 | 66 | 286 | 3.5 | 9.6 | 0.00 | 0.27 | 0.27 | 81 | 1009.2 |
| 20260503040449 | 68 | 356 | 3.5 | 12.2 | 0.00 | 0.27 | 0.27 | 81 | 1009.1 |
| 20260503035958 | 68 | 320 | 4.3 | 12.2 | 0.00 | 0.27 | 0.27 | 80 | 1009.1 |
| 20260503035440 | 68 | 22 | 4.3 | 12.2 | 0.00 | 0.27 | 0.27 | 79 | 1009.0 |
| 20260503034932 | 68 | 255 | 3.5 | 12.2 | 0.00 | 0.27 | 0.27 | 78 | 1008.9 |
| 20260503034420 | 69 | 343 | 2.6 | 7.0 | 0.00 | 0.27 | 0.27 | 78 | 1008.7 |
| 20260503033917 | 69 | 302 | 2.6 | 7.8 | 0.00 | 0.27 | 0.27 | 78 | 1008.8 |
| 20260503032758 | 69 | 359 | 2.6 | 7.8 | 0.00 | 0.27 | 0.27 | 78 | 1008.9 |
| 20260503032253 | 69 | 35 | 3.5 | 13.9 | 0.00 | 0.27 | 0.27 | 78 | 1008.9 |
| 20260503031745 | 69 | 37 | 4.3 | 13.9 | 0.00 | 0.27 | 0.27 | 78 | 1009.1 |
| 20260503031255 | 69 | 315 | 4.3 | 13.9 | 0.00 | 0.27 | 0.27 | 77 | 1009.0 |
| 20260503023554 | 69 | 51 | 4.3 | 12.2 | 0.00 | 0.27 | 0.27 | 81 | 1009.2 |
| 20260503023043 | 69 | 319 | 3.5 | 11.3 | 0.00 | 0.27 | 0.27 | 83 | 1009.2 |
| 20260503022546 | 68 | 340 | 4.3 | 11.3 | 0.00 | 0.27 | 0.27 | 83 | 1009.2 |
| 20260503022028 | 68 | 36 | 4.3 | 10.4 | 0.00 | 0.27 | 0.27 | 84 | 1009.1 |
| 20260503020846 | 67 | 81 | 2.6 | 8.7 | 0.00 | 0.26 | 0.26 | 88 | 1009.3 |
| 20260503020355 | 66 | 319 | 2.6 | 8.7 | 0.00 | 0.26 | 0.26 | 88 | 1009.4 |